| time (UTC) | temp C | wind direction | speed KPH | gust KPH | rain 1hr cm | rain 24hr cm | rain mn cm | humidity % | barometer mb |
| 20260508235932 | 16 | 0 | 0.0 | 0.0 | 0.00 | 0.00 | 0.00 | 63 | 1012.4 |
| 20260508234918 | 16 | 0 | 1.6 | 6.4 | 0.00 | 0.00 | 0.00 | 64 | 1012.3 |
| 20260508233933 | 16 | 0 | 0.0 | 0.0 | 0.00 | 0.00 | 0.00 | 64 | 1012.5 |
| 20260508232914 | 16 | 0 | 1.6 | 6.4 | 0.00 | 0.00 | 0.00 | 61 | 1012.5 |
| 20260508231843 | 16 | 0 | 0.0 | 6.4 | 0.00 | 0.00 | 0.00 | 60 | 1012.3 |
| 20260508230815 | 16 | 0 | 1.6 | 6.4 | 0.00 | 0.00 | 0.00 | 60 | 1012.7 |
| 20260508225829 | 16 | 139 | 1.6 | 6.4 | 0.00 | 0.00 | 0.00 | 57 | 1012.6 |
| 20260508224758 | 16 | 177 | 0.0 | 0.0 | 0.00 | 0.00 | 0.00 | 55 | 1012.6 |
| 20260508223802 | 17 | 142 | 0.0 | 0.0 | 0.00 | 0.00 | 0.00 | 58 | 1012.8 |
| 20260508221607 | 17 | 196 | 0.0 | 0.0 | 0.00 | 0.00 | 0.00 | 58 | 1012.8 |
| 20260508220619 | 17 | 275 | 0.0 | 0.0 | 0.00 | 0.00 | 0.00 | 58 | 1012.8 |
| 20260508215626 | 17 | 126 | 0.0 | 0.0 | 0.00 | 0.00 | 0.00 | 58 | 1012.7 |
| 20260508214616 | 17 | 126 | 0.0 | 0.0 | 0.00 | 0.00 | 0.00 | 54 | 1012.7 |
| 20260508213621 | 17 | 125 | 0.0 | 0.0 | 0.00 | 0.00 | 0.00 | 55 | 1012.3 |
| 20260508212551 | 17 | 124 | 0.0 | 0.0 | 0.00 | 0.00 | 0.00 | 50 | 1012.6 |
| 20260508211547 | 17 | 123 | 0.0 | 0.0 | 0.00 | 0.00 | 0.00 | 52 | 1012.6 |
| 20260508210523 | 17 | 92 | 0.0 | 0.0 | 0.00 | 0.00 | 0.00 | 53 | 1012.9 |
| 20260508205455 | 18 | 205 | 0.0 | 0.0 | 0.00 | 0.00 | 0.00 | 52 | 1013.2 |
| 20260508204512 | 18 | 275 | 0.0 | 0.0 | 0.00 | 0.00 | 0.00 | 54 | 1013.2 |
| 20260508202328 | 18 | 179 | 0.0 | 0.0 | 0.00 | 0.00 | 0.00 | 53 | 1013.1 |
| 20260508201315 | 17 | 155 | 0.0 | 0.0 | 0.00 | 0.00 | 0.00 | 50 | 1013.5 |
| 20260508200323 | 16 | 152 | 0.0 | 0.0 | 0.00 | 0.00 | 0.00 | 49 | 1013.5 |
| 20260508194157 | 17 | 155 | 1.6 | 4.8 | 0.00 | 0.00 | 0.00 | 54 | 1013.8 |
| 20260508193144 | 16 | 157 | 0.0 | 0.0 | 0.00 | 0.00 | 0.00 | 52 | 1013.8 |
| 20260508192157 | 17 | 216 | 0.0 | 4.8 | 0.00 | 0.00 | 0.00 | 49 | 1014.0 |
| 20260508191159 | 17 | 141 | 1.6 | 1.6 | 0.00 | 0.00 | 0.00 | 53 | 1014.1 |
| 20260508190133 | 16 | 130 | 1.6 | 4.8 | 0.00 | 0.00 | 0.00 | 51 | 1014.1 |
| 20260508185116 | 17 | 151 | 1.6 | 4.8 | 0.00 | 0.00 | 0.00 | 50 | 1014.4 |
| 20260508184109 | 17 | 281 | 1.6 | 4.8 | 0.00 | 0.00 | 0.00 | 46 | 1014.7 |
| 20260508183125 | 17 | 197 | 1.6 | 6.4 | 0.00 | 0.00 | 0.00 | 47 | 1014.7 |
| 20260508182147 | 17 | 199 | 1.6 | 9.7 | 0.00 | 0.00 | 0.00 | 46 | 1015.1 |
| 20260508181212 | 17 | 239 | 1.6 | 9.7 | 0.00 | 0.00 | 0.00 | 42 | 1015.2 |
| 20260508180141 | 17 | 189 | 0.0 | 0.0 | 0.00 | 0.00 | 0.00 | 45 | 1015.2 |
| 20260508175107 | 16 | 103 | 0.0 | 0.0 | 0.00 | 0.00 | 0.00 | 45 | 1015.2 |
| 20260508174057 | 16 | 139 | 1.6 | 0.0 | 0.00 | 0.00 | 0.00 | 44 | 1015.7 |
| 20260508173055 | 17 | 117 | 1.6 | 4.8 | 0.00 | 0.00 | 0.00 | 54 | 1015.7 |
| 20260508172038 | 16 | 78 | 1.6 | 9.7 | 0.00 | 0.00 | 0.00 | 47 | 1015.8 |
| 20260508171103 | 16 | 167 | 0.0 | 0.0 | 0.00 | 0.00 | 0.00 | 49 | 1015.7 |
| 20260508170123 | 16 | 142 | 1.6 | 6.4 | 0.00 | 0.00 | 0.00 | 52 | 1015.7 |
| 20260508165054 | 15 | 90 | 1.6 | 9.7 | 0.00 | 0.00 | 0.00 | 53 | 1015.9 |
| 20260508164106 | 15 | 174 | 0.0 | 9.7 | 0.00 | 0.00 | 0.00 | 57 | 1016.3 |
| 20260508163056 | 15 | 63 | 0.0 | 0.0 | 0.00 | 0.00 | 0.00 | 51 | 1016.3 |
| 20260508162023 | 15 | 226 | 0.0 | 0.0 | 0.00 | 0.00 | 0.00 | 51 | 1016.6 |
| 20260508161024 | 15 | 153 | 0.0 | 0.0 | 0.00 | 0.00 | 0.00 | 56 | 1016.8 |
| 20260508160025 | 15 | 137 | 0.0 | 0.0 | 0.00 | 0.00 | 0.00 | 55 | 1016.8 |
| 20260508155011 | 15 | 103 | 0.0 | 0.0 | 0.00 | 0.00 | 0.00 | 54 | 1016.9 |
| 20260508152933 | 14 | 152 | 0.0 | 9.7 | 0.00 | 0.00 | 0.00 | 60 | 1016.8 |
| 20260508151901 | 13 | 113 | 1.6 | 6.4 | 0.00 | 0.00 | 0.00 | 58 | 1017.1 |
| 20260508150917 | 13 | 109 | 0.0 | 6.4 | 0.00 | 0.00 | 0.00 | 60 | 1017.0 |
| 20260508145859 | 13 | 141 | 0.0 | 0.0 | 0.00 | 0.00 | 0.00 | 60 | 1017.1 |
| 20260508144900 | 13 | 90 | 3.2 | 9.7 | 0.00 | 0.00 | 0.00 | 57 | 1017.1 |
| 20260508143844 | 13 | 134 | 3.2 | 9.7 | 0.00 | 0.00 | 0.00 | 62 | 1017.1 |
| 20260508142819 | 13 | 125 | 3.2 | 9.7 | 0.00 | 0.00 | 0.00 | 64 | 1017.1 |
| 20260508141757 | 13 | 155 | 3.2 | 9.7 | 0.00 | 0.00 | 0.00 | 66 | 1017.1 |
| 20260508134539 | 12 | 0 | 3.2 | 6.4 | 0.00 | 0.00 | 0.00 | 66 | 1017.1 |
| 20260508133604 | 12 | 0 | 1.6 | 6.4 | 0.00 | 0.00 | 0.00 | 66 | 1017.0 |
| 20260508132616 | 12 | 0 | 1.6 | 6.4 | 0.00 | 0.00 | 0.00 | 65 | 1016.9 |
| 20260508131601 | 11 | 0 | 1.6 | 6.4 | 0.00 | 0.00 | 0.00 | 65 | 1016.9 |
| 20260508130614 | 11 | 0 | 3.2 | 6.4 | 0.00 | 0.00 | 0.00 | 66 | 1017.0 |
| 20260508125626 | 11 | 0 | 1.6 | 6.4 | 0.00 | 0.00 | 0.00 | 60 | 1017.0 |
| 20260508124554 | 11 | 0 | 0.0 | 0.0 | 0.00 | 0.00 | 0.00 | 65 | 1017.0 |
| 20260508123531 | 11 | 0 | 0.0 | 0.0 | 0.00 | 0.00 | 0.00 | 65 | 1017.0 |
| 20260508122545 | 11 | 0 | 1.6 | 4.8 | 0.00 | 0.00 | 0.00 | 69 | 1016.9 |
| 20260508121607 | 10 | 0 | 1.6 | 4.8 | 0.00 | 0.00 | 0.00 | 67 | 1016.9 |
| 20260508115527 | 10 | 0 | 1.6 | 4.8 | 0.00 | 0.00 | 0.00 | 63 | 1016.4 |
| 20260508114459 | 10 | 0 | 1.6 | 6.4 | 0.00 | 0.00 | 0.00 | 64 | 1016.4 |
| 20260508113424 | 9 | 0 | 1.6 | 4.8 | 0.00 | 0.00 | 0.00 | 63 | 1016.0 |
| 20260508112411 | 9 | 0 | 1.6 | 4.8 | 0.00 | 0.00 | 0.00 | 64 | 1015.8 |
| 20260508111415 | 10 | 0 | 1.6 | 6.4 | 0.00 | 0.00 | 0.00 | 63 | 1015.8 |
| 20260508110431 | 9 | 0 | 1.6 | 6.4 | 0.00 | 0.03 | 0.00 | 64 | 1015.5 |
| 20260508105438 | 10 | 0 | 1.6 | 4.8 | 0.00 | 0.03 | 0.00 | 63 | 1015.4 |
| 20260508104432 | 10 | 0 | 0.0 | 0.0 | 0.00 | 0.03 | 0.00 | 59 | 1015.4 |
| 20260508103438 | 10 | 0 | 0.0 | 0.0 | 0.00 | 0.03 | 0.00 | 63 | 1015.2 |
| 20260508095025 | 10 | 0 | 1.6 | 4.8 | 0.00 | 0.03 | 0.00 | 62 | 1014.7 |
| 20260508093952 | 10 | 0 | 1.6 | 4.8 | 0.00 | 0.03 | 0.00 | 61 | 1014.7 |
| 20260508091756 | 10 | 0 | 1.6 | 6.4 | 0.00 | 0.15 | 0.00 | 61 | 1014.7 |
| 20260508090729 | 10 | 0 | 0.0 | 6.4 | 0.00 | 0.41 | 0.00 | 61 | 1014.6 |
| 20260508085656 | 10 | 0 | 0.0 | 0.0 | 0.00 | 0.53 | 0.00 | 64 | 1014.5 |
| 20260508083537 | 10 | 0 | 0.0 | 1.6 | 0.00 | 0.58 | 0.00 | 64 | 1014.5 |
| 20260508082504 | 10 | 0 | 1.6 | 6.4 | 0.00 | 0.71 | 0.00 | 64 | 1014.5 |
| 20260508081442 | 10 | 0 | 1.6 | 4.8 | 0.00 | 0.74 | 0.00 | 66 | 1014.5 |
| 20260508080457 | 10 | 0 | 1.6 | 1.6 | 0.00 | 0.74 | 0.00 | 67 | 1014.5 |
| 20260508075459 | 10 | 0 | 1.6 | 6.4 | 0.00 | 0.74 | 0.00 | 68 | 1014.5 |
| 20260508074521 | 10 | 0 | 1.6 | 6.4 | 0.00 | 0.74 | 0.00 | 67 | 1014.5 |
| 20260508073541 | 10 | 0 | 1.6 | 6.4 | 0.00 | 0.74 | 0.00 | 67 | 1014.6 |
| 20260508072514 | 10 | 0 | 1.6 | 6.4 | 0.00 | 0.74 | 0.00 | 68 | 1014.6 |
| 20260508071513 | 10 | 0 | 1.6 | 6.4 | 0.00 | 0.74 | 0.00 | 68 | 1014.6 |
| 20260508070500 | 10 | 0 | 1.6 | 6.4 | 0.00 | 0.74 | 0.00 | 69 | 1014.8 |
| 20260508064357 | 10 | 0 | 1.6 | 4.8 | 0.00 | 0.74 | 0.00 | 73 | 1015.0 |
| 20260508062307 | 10 | 0 | 1.6 | 4.8 | 0.00 | 0.74 | 0.00 | 72 | 1015.0 |
| 20260508061239 | 10 | 0 | 1.6 | 6.4 | 0.00 | 0.74 | 0.00 | 73 | 1015.1 |
| 20260508060224 | 10 | 0 | 1.6 | 6.4 | 0.00 | 0.74 | 0.00 | 72 | 1015.1 |
| 20260508055227 | 10 | 0 | 1.6 | 4.8 | 0.00 | 0.74 | 0.00 | 72 | 1015.0 |
| 20260508053111 | 10 | 0 | 1.6 | 4.8 | 0.00 | 0.74 | 0.00 | 73 | 1015.0 |
| 20260508052044 | 10 | 0 | 1.6 | 4.8 | 0.00 | 0.74 | 0.00 | 72 | 1014.9 |
| 20260508051056 | 10 | 0 | 0.0 | 0.0 | 0.00 | 0.74 | 0.00 | 73 | 1014.7 |
| 20260508044943 | 10 | 0 | 0.0 | 0.0 | 0.00 | 0.74 | 0.00 | 75 | 1014.7 |
| 20260508043932 | 10 | 0 | 0.0 | 1.6 | 0.00 | 0.74 | 0.00 | 75 | 1014.8 |
| 20260508042947 | 10 | 0 | 0.0 | 4.8 | 0.00 | 0.74 | 0.00 | 77 | 1014.8 |
| 20260508041951 | 10 | 0 | 0.0 | 1.6 | 0.00 | 0.76 | 0.00 | 75 | 1014.9 |
| 20260508040951 | 10 | 0 | 0.0 | 0.0 | 0.00 | 0.79 | 0.00 | 75 | 1014.6 |
| 20260508035928 | 11 | 0 | 0.0 | 0.0 | 0.00 | 0.79 | 0.79 | 78 | 1014.6 |
| 20260508033837 | 11 | 0 | 0.0 | 1.6 | 0.00 | 0.81 | 0.79 | 75 | 1014.4 |
| 20260508032837 | 11 | 0 | 0.0 | 0.0 | 0.00 | 0.94 | 0.79 | 76 | 1014.3 |
| 20260508030740 | 11 | 0 | 0.0 | 0.0 | 0.00 | 0.94 | 0.79 | 73 | 1014.3 |
| 20260508025804 | 11 | 0 | 0.0 | 0.0 | 0.00 | 1.07 | 0.79 | 74 | 1014.1 |
| 20260508023642 | 11 | 0 | 1.6 | 6.4 | 0.00 | 1.19 | 0.79 | 77 | 1014.2 |
| 20260508022658 | 11 | 0 | 1.6 | 6.4 | 0.00 | 1.22 | 0.79 | 76 | 1014.1 |
| 20260508021657 | 11 | 0 | 1.6 | 4.8 | 0.00 | 1.22 | 0.79 | 76 | 1014.1 |
| 20260508020710 | 11 | 0 | 1.6 | 6.4 | 0.00 | 1.22 | 0.79 | 79 | 1013.7 |
| 20260508015716 | 11 | 0 | 1.6 | 6.4 | 0.00 | 1.22 | 0.79 | 79 | 1013.7 |
| 20260508014732 | 11 | 0 | 0.0 | 4.8 | 0.00 | 1.22 | 0.79 | 78 | 1013.7 |
| 20260508013710 | 11 | 0 | 0.0 | 0.0 | 0.00 | 1.22 | 0.79 | 78 | 1013.6 |
| 20260508012734 | 12 | 0 | 0.0 | 0.0 | 0.00 | 1.22 | 0.79 | 78 | 1013.4 |
| 20260508010530 | 12 | 0 | 1.6 | 9.7 | 0.00 | 1.22 | 0.79 | 81 | 1013.1 |
| 20260508005515 | 12 | 0 | 1.6 | 6.4 | 0.00 | 1.22 | 0.79 | 79 | 1013.0 |
| 20260508003431 | 12 | 0 | 0.0 | 4.8 | 0.00 | 1.22 | 0.79 | 78 | 1012.9 |
| 20260508002421 | 13 | 0 | 1.6 | 9.7 | 0.00 | 1.22 | 0.79 | 80 | 1012.9 |
| 20260508001402 | 13 | 0 | 3.2 | 9.7 | 0.00 | 1.22 | 0.79 | 78 | 1012.4 |